ARIANE 42P DEB, 44512

Orbit data source: Space-Track

ARIANE 42P DEB, 44512 is space debris in LEO originally from a launch on Mon, 10 Aug 1992 UTC launched from the French Guiana (FRGUI). Debris objects in space refer to the collection of defunct objects orbiting the Earth. Examples of debris include non-operational satellites, rocket bodies, and fragments generated from explosions, collisions, or faulty payload assembly.

Loading next visibility...
Identifier
44512, 1992-052K
Orbit
LEO
Country
Flag of FRFR
Related business
Manufacturer
ArianeGroup
Mission
Spacecraft
Bus & Motor
Unknown
Mass
Unknown
Launch date (UTC)
1992-08-10 (33 years ago)
Launch vehicle
Unknown
Launch site
French Guiana (FRGUI)
Object type
Payload
Rocket body
Debris
Shape & HBR
Unknown shape, 0.1 m
Radar Cross Section
Small (<0.1 m²)

Expand to show TLE details & history
Last TLE update: 15 hours ago

TLE from 15 hours ago
0 ARIANE 42P DEB
1 44512U 92052K   26036.70836641 -.00000087  00000-0 -83720-4 0  9997
2 44512  65.9117 143.1616 0263680  18.1213 342.8987 12.86774991303461
Epoch: 2026-02-05T17:00Z
TLE epoch observation values (Epoch: 2026-02-05T17:00:02.857Z)
Latitude
-0.00007°
Longitude
112.29295°
Altitude
1,122.851 km
Speed
7.383 km/s
True Right ascension
09h 32m 38s
True Declination
0° 00' 00"
Sunlit
Object was in full shadow at epoch
Visualization orbit readout
Latitude
Unknown
Longitude
Unknown
Altitude
Unknown
Speed
Unknown
Apparent Right ascension
Unknown
Apparent Declination
Unknown
Sunlit
N/A
Visualization observer readout
Local Sidereal Time
10:27:47
Azimuth
Unknown
Elevation
Unknown
Doppler factor
Unknown
Orbital elements
Apogee altitude
1,515.719 km
Perigee altitude
1,110.123 km
Semi-major axis
7,691.058 km
Eccentricity
0.02637
Inclination
65.9117°
RAAN
143.1616°
Arg. of periapsis
18.1213°
True anomaly
341.98135°
Mean anomaly
342.8987°
Eccentric anomaly
342.44297°
Mean motion
3.21784 °/min
Orbital period
111.88 mins
BSTAR
-0.00008372
Loading maneuver chart data...
Computing Atmospheric mass density...
Loading historical data...
Loading historical data...
Loading historical data...
Loading historical data...
Loading historical data...
Loading historical data...
Loading historical data...

Documentation

Showing up to 5 results
|